User: anonymous   Login
Location: Unspecified
(0.0000°N, 0.0000°E)
Time: 04:13:00
(UTC+00:00)
Language:

ONEWEB-0645 - Orbit

View from above orbital plane
View from above orbital plane
View from above satellite
View from above satellite

Ground track
Ground track

The orbit is defined by the following mean orbital elements,

1 55809U          26145.37058775 +.00000000 +00000-0 -10974-4 0 00006
2 55809  87.9149 309.5246 0001610  78.4816 281.6497 13.19726635    08
Epoch (UTC): 25 May 2026 08:53:38
Eccentricity: 0.0001610
inclination: 87.9149°
perigee height: 1185 km
apogee height: 1187 km
right ascension of ascending node: 309.5246°
argument of perigee: 78.4816°
revolutions per day: 13.19726635
mean anomaly at epoch: 281.6497°

The dashed part of the orbit path shows where the satellite is in the earth's shadow,  

DLR